Wind_Speed
32 32 31 31 31 31 31 31 31 29 28 27 27 28 29 29 29 30 30 31 31 32 32 32 32 32 33 34 35 36 37 37 38 38 39 39 40 40 40 41 42 42 43 43
34 33 34 33 32 32 32 32 32 31 29 28 30 31 31 31 31 32 32 32 33 33 34 33 33 34 34 35 35 36 37 39 40 40 41 41 41 41 42 42 43 43 43 43
35 35 36 35 33 33 33 33 33 33 31 31 32 33 33 33 33 33 34 34 35 35 35 35 35 35 35 35 36 37 38 39 40 41 42 43 43 43 43 42 42 42 42 42
37 37 37 35 34 34 34 34 34 34 34 34 34 34 34 34 35 35 35 36 36 36 36 36 36 36 36 36 37 38 38 39 41 42 42 43 43 43 43 42 42 42 42 43
37 38 38 35 35 35 35 34 34 35 34 35 35 36 36 36 36 36 36 36 36 36 37 37 37 38 38 38 38 39 40 40 41 42 43 43 43 43 43 43 42 42 42 43
38 39 38 36 36 35 36 36 35 36 36 36 36 37 36 37 38 38 38 38 38 37 38 38 38 39 39 39 39 39 40 41 42 43 43 43 42 42 43 43 43 43 42 42
38 39 39 37 37 37 37 37 37 37 37 37 38 38 38 38 39 39 39 39 39 38 38 39 39 40 40 40 40 41 41 41 42 42 43 42 42 42 43 43 43 43 43 43
38 39 39 39 38 38 38 38 38 37 37 37 37 38 39 39 39 40 40 40 40 40 40 40 40 40 40 41 41 42 42 41 41 41 41 41 41 42 42 43 43 43 43 43
39 39 39 39 39 39 39 38 38 38 37 37 38 38 39 40 40 40 40 40 41 40 40 40 40 40 41 41 41 41 41 40 40 40 40 41 42 42 42 42 42 42 42 42
38 37 37 38 39 39 38 38 38 38 39 39 39 39 40 40 40 40 40 40 40 40 40 40 40 41 41 41 41 40 39 39 39 40 40 40 41 41 41 41 42 42 42 42
39 37 37 37 37 38 38 38 38 39 39 39 40 40 39 39 39 40 40 40 40 40 40 40 39 39 39 39 39 39 39 40 40 39 39 39 39 39 40 40 41 41 41 41
38 37 38 37 36 37 38 38 38 38 39 40 40 40 40 40 40 40 40 40 40 40 39 39 38 38 38 38 38 38 39 39 39 39 39 39 38 38 39 39 39 39 39 39
39 39 39 38 37 37 38 38 38 38 38 39 39 40 40 40 40 40 40 40 39 39 39 39 38 38 37 37 37 38 38 39 39 39 39 38 39 38 38 37 37 37 37 37
40 40 40 39 38 38 37 38 38 39 39 39 39 39 39 39 40 40 40 39 39 38 38 38 37 37 37 37 37 37 37 38 38 38 38 37 37 37 37 37 36 36 36 36
39 39 39 39 38 38 38 37 37 37 37 38 38 38 38 38 38 38 38 38 38 37 37 36 36 35 36 36 36 36 36 36 36 36 36 36 36 36 36 36 36 35 35 35
36 36 37 37 38 38 37 37 37 36 36 36 37 37 37 37 36 35 36 36 36 35 35 34 34 34 34 34 34 34 34 34 34 34 34 35 35 35 35 35 35 34 33 33
35 35 35 36 36 36 37 37 37 36 36 36 36 36 36 36 35 35 35 35 34 34 34 33 33 33 34 34 33 33 33 33 33 33 33 33 34 34 34 33 33 32 32 32
34 34 35 35 36 35 35 35 35 34 35 35 35 35 34 35 34 34 34 34 34 33 33 33 33 33 32 32 32 32 32 32 32 32 33 33 33 32 32 31 31 31 31 30
33 34 34 34 35 34 34 34 34 35 35 34 34 33 34 34 33 33 33 33 33 33 33 34 34 33 32 32 33 32 32 32 32 32 31 31 31 31 31 30 30 29 29 29
32 32 33 33 34 34 34 34 34 34 34 34 34 33 33 33 33 33 33 33 33 33 33 33 33 33 33 32 32 32 31 31 30 30 30 30 30 29 29 28 28 27 27 27
31 31 32 32 32 32 32 33 33 33 33 33 33 33 33 33 33 33 33 33 32 33 33 33 33 33 32 32 31 31 30 30 30 29 29 29 28 28 27 27 26 26 26 26
30 30 31 31 32 32 32 32 32 32 32 32 32 32 32 32 32 32 32 32 32 32 32 32 32 31 31 31 30 30 29 28 28 28 28 27 27 27 26 26 25 25 24 24
29 30 30 30 30 30 30 31 31 31 32 32 31 31 31 31 31 31 31 31 32 31 31 30 30 29 29 29 28 28 28 27 27 27 27 26 26 26 25 25 24 24 23 23
30 29 29 29 30 30 30 30 31 32 32 31 31 31 31 30 30 30 30 29 30 30 29 29 29 28 28 27 27 27 27 27 27 26 25 25 25 25 24 24 23 23 22 22
29 29 30 30 30 30 30 31 31 31 30 30 30 30 30 31 31 30 29 29 29 28 28 27 27 27 26 26 26 26 26 25 25 25 24 24 24 23 23 23 23 23 23 22
28 28 29 29 30 30 30 30 30 29 30 30 30 31 31 31 31 30 29 28 28 27 26 26 26 25 25 25 25 25 24 24 23 23 23 23 22 21 21 22 22 22 22 22
27 28 28 28 28 28 29 29 29 29 29 29 29 29 30 30 30 29 28 27 27 26 25 25 24 24 24 24 23 23 22 22 21 21 21 21 21 20 20 20 20 21 21 21
Wind_Direction
277 276 276 277 277 277 277 278 278 279 277 277 277 277 277 276 276 278 277 275 274 274 273 272 271 271 270 269 268 268 269 268 268 270 271 272 272 273 274 275 275 275 275 275
275 275 275 275 276 276 276 275 276 276 276 277 277 277 277 277 276 276 277 275 275 275 273 273 272 272 272 271 269 269 270 269 269 270 271 273 274 275 275 275 275 275 274 275
275 275 275 274 276 276 275 274 274 274 275 275 275 276 277 277 277 277 277 276 275 275 274 274 273 273 273 273 271 271 271 271 271 271 272 273 274 275 276 275 275 274 274 275
274 274 274 277 276 276 275 274 274 274 274 274 275 276 276 277 277 278 278 277 276 276 276 275 275 275 274 274 274 273 273 272 272 272 273 274 274 275 275 275 275 275 275 275
273 274 275 276 277 277 276 275 274 274 274 275 276 277 277 278 278 279 279 278 277 277 277 277 276 276 276 275 275 275 273 273 273 273 273 274 274 275 275 275 276 276 276 276
273 274 276 277 278 278 277 276 276 275 275 275 275 276 277 277 278 279 279 278 277 277 277 277 277 276 275 275 275 275 275 274 274 273 273 274 275 275 276 276 276 277 277 277
272 274 275 277 278 278 277 278 277 276 276 276 277 277 278 278 278 278 278 278 277 277 277 277 276 276 275 275 275 275 276 276 275 274 274 275 275 275 276 276 277 278 277 277
272 274 276 276 276 276 276 276 276 277 277 277 277 277 277 278 278 277 277 278 277 278 278 278 278 277 276 275 275 276 276 276 276 275 275 275 275 276 276 277 278 278 277 277
274 275 275 274 274 274 274 275 275 276 276 276 276 277 277 278 278 278 278 278 278 278 279 279 278 277 276 276 276 276 276 276 275 274 274 275 276 277 278 278 278 278 278 279
274 275 274 273 273 273 273 274 274 274 275 275 276 277 277 278 278 279 279 279 279 279 280 280 279 278 277 276 275 276 275 275 275 275 276 276 276 277 277 278 278 279 279 279
272 273 272 273 272 272 271 272 272 272 273 274 275 276 277 278 278 279 279 280 280 281 281 280 280 279 277 277 276 276 275 275 276 275 275 275 275 276 277 278 279 279 280 279
271 271 272 272 271 271 270 270 271 272 272 273 273 274 276 277 278 279 281 282 282 281 280 280 279 278 277 277 276 276 276 276 276 275 275 275 275 276 277 278 278 279 279 279
269 269 270 271 271 270 269 269 269 271 272 273 274 275 277 278 279 280 280 281 281 281 280 279 279 278 276 276 276 276 276 276 276 275 275 275 275 276 277 276 277 277 278 279
268 269 268 269 269 270 270 270 271 273 274 274 275 276 277 278 278 279 280 280 281 281 280 279 279 278 277 277 277 277 277 277 277 276 275 276 276 275 276 275 275 275 276 277
268 268 268 269 269 269 271 272 274 275 275 275 276 277 277 278 278 278 279 280 280 280 280 280 279 278 278 279 279 279 279 279 278 277 276 275 276 276 277 276 275 275 275 276
268 269 269 269 269 270 272 273 274 275 277 277 277 277 277 278 279 279 280 281 280 280 280 279 279 279 280 280 279 280 280 280 279 277 276 276 276 277 277 276 275 275 275 276
268 269 269 269 269 269 272 273 274 275 276 277 277 278 278 278 279 280 280 281 281 280 280 279 280 280 281 281 280 280 280 280 279 278 277 277 277 277 277 276 275 275 275 276
268 268 268 269 269 270 272 274 275 276 277 278 278 278 279 280 280 281 281 280 280 280 280 279 280 281 282 281 280 280 280 280 280 279 278 276 277 277 277 277 276 275 275 276
268 268 269 270 271 272 273 274 275 277 278 278 278 278 279 279 279 280 281 281 281 280 279 279 279 280 281 281 281 280 280 280 280 279 278 278 277 277 277 276 275 274 275 275
271 271 271 271 272 273 274 274 275 276 278 278 278 278 279 279 279 280 281 281 281 280 280 280 280 279 280 281 281 280 280 279 279 279 279 278 278 277 276 275 275 274 274 274
272 272 272 272 272 273 274 275 275 277 278 278 278 278 278 278 278 280 280 280 280 280 280 280 280 280 279 280 281 280 280 279 279 279 278 278 277 277 276 274 274 274 274 274
275 274 274 273 273 273 274 275 276 277 278 279 280 279 278 277 278 279 279 279 280 280 280 280 280 280 280 279 279 280 279 279 278 278 277 277 276 276 275 275 273 273 273 274
277 277 276 275 274 274 274 275 276 277 278 279 279 279 278 279 279 280 279 279 280 280 280 280 280 280 280 279 279 279 278 278 277 277 276 275 275 274 274 273 273 272 273 274
278 278 278 277 276 276 276 276 277 277 278 278 278 278 278 278 279 280 280 280 281 281 281 280 279 279 279 279 278 279 279 277 276 276 275 274 274 273 272 272 271 271 272 275
279 279 279 279 278 278 277 277 277 277 277 277 277 277 278 279 279 279 280 281 281 281 281 280 279 278 278 278 278 277 277 277 276 275 273 272 273 272 272 271 270 269 272 276
279 279 279 279 279 279 279 279 278 277 277 277 277 278 278 279 279 278 278 279 279 279 279 279 279 278 277 277 278 277 276 276 276 274 271 271 270 270 271 271 271 272 273 274
281 280 280 279 278 279 280 280 279 278 278 278 278 279 279 279 278 276 276 276 276 276 277 278 278 278 278 277 278 277 275 274 274 273 270 268 266 268 271 271 271 272 273 273
Height
5660 5659 5658 5657 5656 5654 5653 5652 5650 5651 5650 5649 5647 5645 5644 5643 5641 5640 5639 5638 5637 5636 5635 5635 5634 5633 5633 5633 5632 5632 5632 5632 5632 5631 5631 5630 5629 5628 5626 5625 5624 5623 5622 5621
5650 5649 5647 5647 5646 5645 5644 5643 5642 5641 5641 5641 5638 5636 5635 5634 5633 5631 5630 5629 5628 5627 5626 5625 5624 5624 5623 5622 5622 5621 5621 5621 5620 5620 5619 5618 5617 5616 5614 5613 5612 5611 5609 5608
5639 5638 5636 5637 5638 5636 5635 5634 5632 5631 5633 5630 5629 5627 5626 5624 5623 5622 5621 5620 5618 5617 5616 5615 5614 5613 5613 5612 5611 5610 5610 5609 5609 5608 5607 5606 5605 5603 5602 5600 5599 5598 5597 5595
5627 5628 5626 5630 5627 5626 5624 5623 5622 5621 5621 5620 5618 5617 5616 5614 5613 5612 5610 5609 5608 5606 5605 5604 5603 5602 5602 5601 5600 5599 5598 5598 5596 5595 5594 5593 5592 5591 5589 5588 5587 5585 5584 5583
5615 5614 5615 5618 5616 5614 5613 5613 5612 5610 5609 5609 5607 5606 5605 5604 5602 5601 5599 5598 5597 5595 5594 5593 5592 5591 5590 5589 5588 5587 5586 5585 5584 5583 5582 5581 5580 5578 5577 5576 5574 5573 5571 5570
5604 5602 5603 5607 5605 5603 5602 5601 5601 5599 5598 5597 5596 5595 5595 5593 5591 5589 5588 5587 5585 5584 5583 5582 5580 5579 5578 5577 5576 5575 5574 5573 5572 5570 5569 5568 5567 5566 5565 5563 5562 5560 5559 5558
5592 5590 5591 5594 5593 5591 5592 5592 5589 5587 5586 5585 5584 5584 5583 5581 5580 5578 5577 5575 5574 5573 5572 5570 5569 5567 5566 5565 5564 5563 5561 5560 5559 5558 5557 5556 5555 5554 5552 5551 5549 5548 5547 5546
5581 5579 5583 5582 5580 5580 5579 5578 5576 5575 5574 5574 5572 5571 5570 5569 5568 5566 5565 5563 5562 5561 5560 5558 5557 5555 5554 5553 5552 5550 5549 5548 5547 5545 5544 5543 5542 5541 5539 5538 5537 5535 5534 5533
5570 5571 5570 5568 5567 5566 5566 5566 5565 5564 5563 5562 5561 5560 5558 5557 5556 5554 5553 5551 5550 5549 5548 5546 5544 5542 5541 5540 5538 5537 5536 5535 5534 5533 5531 5530 5529 5528 5526 5525 5524 5522 5521 5520
5557 5558 5557 5556 5555 5554 5554 5554 5553 5552 5551 5550 5548 5547 5546 5545 5544 5542 5541 5539 5538 5536 5535 5534 5531 5530 5528 5527 5525 5525 5524 5523 5522 5520 5519 5517 5516 5515 5514 5513 5511 5510 5508 5507
5545 5546 5545 5544 5543 5543 5542 5541 5541 5540 5539 5537 5536 5535 5534 5533 5532 5530 5529 5527 5525 5524 5522 5521 5519 5517 5515 5514 5513 5512 5511 5510 5509 5508 5507 5505 5504 5503 5502 5501 5499 5497 5496 5494
5534 5534 5533 5533 5532 5531 5530 5529 5529 5528 5527 5526 5524 5523 5522 5521 5520 5518 5517 5515 5513 5512 5510 5509 5507 5505 5504 5502 5501 5500 5499 5498 5497 5496 5494 5493 5492 5491 5490 5489 5487 5485 5484 5482
5521 5520 5520 5520 5519 5518 5518 5517 5516 5515 5515 5514 5512 5511 5510 5509 5508 5506 5504 5503 5501 5500 5498 5496 5495 5493 5492 5490 5489 5488 5487 5485 5484 5483 5482 5481 5480 5479 5479 5478 5476 5474 5473 5471
5508 5508 5508 5508 5508 5507 5506 5505 5505 5504 5503 5502 5500 5499 5498 5497 5495 5494 5492 5491 5489 5488 5486 5484 5483 5481 5480 5478 5477 5476 5475 5473 5472 5471 5470 5469 5468 5467 5466 5465 5465 5464 5462 5460
5496 5495 5495 5496 5496 5495 5495 5494 5493 5492 5491 5490 5489 5488 5486 5485 5484 5482 5481 5479 5477 5476 5474 5473 5471 5470 5468 5467 5465 5464 5463 5462 5460 5459 5458 5457 5457 5456 5454 5453 5453 5452 5451 5450
5484 5484 5484 5484 5484 5484 5483 5483 5482 5481 5480 5479 5478 5476 5475 5474 5472 5471 5469 5468 5466 5465 5463 5462 5460 5459 5457 5456 5454 5453 5452 5450 5449 5448 5447 5446 5445 5444 5443 5442 5441 5441 5440 5439
5473 5473 5473 5473 5472 5472 5472 5471 5470 5470 5468 5467 5466 5465 5464 5463 5462 5460 5459 5457 5455 5454 5452 5451 5450 5448 5447 5445 5443 5442 5441 5440 5438 5437 5436 5435 5434 5433 5432 5431 5431 5430 5430 5428
5461 5462 5462 5461 5461 5461 5460 5460 5459 5458 5457 5456 5455 5454 5453 5452 5451 5449 5448 5447 5445 5444 5442 5440 5439 5438 5436 5434 5433 5431 5430 5429 5428 5426 5425 5424 5423 5423 5422 5421 5420 5420 5419 5418
5451 5451 5450 5450 5450 5450 5449 5449 5448 5447 5446 5445 5444 5443 5442 5441 5440 5439 5437 5436 5435 5433 5432 5430 5428 5427 5425 5424 5422 5421 5420 5419 5417 5416 5415 5414 5413 5412 5412 5411 5410 5410 5409 5409
5440 5440 5440 5439 5439 5439 5438 5438 5437 5437 5436 5435 5434 5433 5432 5431 5429 5428 5427 5425 5423 5422 5420 5419 5418 5416 5415 5414 5412 5411 5410 5408 5407 5406 5405 5404 5403 5403 5402 5401 5401 5400 5400 5399
5431 5430 5429 5429 5428 5428 5427 5427 5426 5426 5425 5424 5423 5422 5421 5420 5419 5417 5416 5415 5413 5411 5410 5408 5407 5406 5404 5403 5402 5401 5400 5398 5397 5396 5395 5395 5394 5393 5393 5392 5392 5391 5391 5391
5421 5420 5419 5418 5418 5417 5417 5416 5416 5415 5414 5413 5412 5411 5410 5409 5408 5407 5405 5404 5402 5401 5399 5398 5397 5395 5394 5393 5392 5391 5390 5389 5388 5387 5386 5386 5385 5384 5384 5383 5383 5383 5382 5382
5411 5410 5409 5408 5407 5407 5406 5406 5405 5405 5404 5403 5402 5400 5399 5398 5397 5396 5395 5394 5392 5390 5389 5388 5387 5385 5384 5383 5382 5381 5381 5380 5379 5378 5377 5377 5376 5376 5375 5375 5375 5375 5374 5374
5402 5400 5399 5398 5398 5397 5396 5396 5395 5394 5393 5392 5391 5390 5389 5388 5387 5386 5384 5383 5382 5381 5380 5378 5377 5376 5375 5374 5373 5372 5371 5370 5370 5369 5368 5368 5368 5367 5367 5367 5367 5367 5367 5366
5392 5391 5390 5389 5388 5387 5386 5386 5385 5384 5383 5382 5381 5380 5379 5377 5377 5376 5375 5374 5373 5371 5370 5369 5368 5367 5366 5365 5364 5363 5362 5362 5361 5360 5360 5360 5359 5359 5359 5359 5359 5359 5359 5359
5382 5381 5380 5379 5378 5377 5376 5375 5374 5374 5373 5372 5371 5370 5369 5367 5366 5366 5365 5364 5363 5362 5361 5360 5359 5358 5357 5357 5356 5355 5354 5353 5353 5352 5352 5352 5352 5352 5352 5352 5352 5352 5352 5351
5373 5372 5371 5370 5368 5367 5366 5365 5364 5363 5362 5361 5361 5360 5358 5357 5356 5356 5355 5355 5354 5353 5352 5352 5351 5350 5349 5348 5348 5347 5346 5346 5345 5345 5344 5344 5345 5345 5345 5345 5345 5345 5344 5344